DateTimeUTC,F1_A11,F1_S11,BsB_S11,BsG_S11,BsR_S11,BbsB_S11,BbsG_S11,BbsR_S11,BaB_A11,BaG_A11,BaR_A11,Tu_S11,T_S11,Uu_S11,U_S11,P_S11,T1_A11
2021-08-22T09:00:00Z,00000200,20000000,,,,,,,0000.02,-000.19,0000.46,18.9,25.5,09.5,06.3,0678.1,31.0
2021-08-22T09:01:00Z,00000200,20000000,,,,,,,0000.02,0000.04,-000.18,18.9,25.6,09.5,06.3,0678.1,31.0
2021-08-22T09:02:00Z,00000200,20000000,,,,,,,0000.03,0000.12,-000.13,18.9,25.6,09.4,06.3,0678.1,31.0
2021-08-22T09:03:00Z,00000200,60000000,,,,,,,0001.34,0001.10,0001.18,18.9,25.6,09.5,06.3,0678.1,31.0
2021-08-22T09:04:00Z,00000200,40000000,0009.65,0007.94,0005.74,0000.80,0001.07,0000.88,0002.27,0001.98,0001.77,19.0,25.4,09.3,06.3,0679.0,31.0
2021-08-22T09:05:00Z,00000200,00000000,0010.22,0008.23,0005.13,0001.20,0000.89,0000.56,0002.31,0002.04,0001.80,19.1,25.4,09.3,06.3,0679.1,31.0
2021-08-22T09:06:00Z,00000200,00000000,0009.15,0008.10,0005.38,0000.56,0001.13,0001.07,0001.70,0002.00,0000.99,19.1,25.4,09.3,06.4,0679.1,31.0
2021-08-22T09:07:00Z,00000200,00000000,0009.94,0008.05,0005.33,0001.34,0000.99,0001.02,0002.17,0001.86,0001.84,19.1,25.4,09.3,06.3,0679.1,31.0
2021-08-22T09:08:00Z,00000200,00000000,0009.26,0008.14,0005.23,0001.52,0001.16,0000.67,0002.20,0002.15,0001.88,19.1,25.4,09.4,06.4,0679.1,31.0
2021-08-22T09:09:00Z,00000200,00000000,0009.75,0007.92,0005.46,0001.66,0000.94,0000.74,0002.09,0001.88,0001.23,19.1,25.4,09.3,06.4,0679.1,31.0
2021-08-22T09:10:00Z,00000200,00000000,0010.39,0007.70,0005.24,0001.98,0000.78,0000.69,0002.17,0001.55,0001.69,19.1,25.4,09.4,06.4,0679.1,31.0
2021-08-22T09:11:00Z,00000200,00000000,0009.24,0007.92,0005.02,0001.24,0000.64,0000.70,0002.00,0002.25,0001.33,19.1,25.4,09.5,06.5,0679.1,31.0
2021-08-22T09:12:00Z,00000200,00000000,0010.15,0007.62,0005.17,0000.88,0000.61,0000.80,0002.07,0001.80,0001.49,19.1,25.4,09.5,06.5,0679.1,31.0
2021-08-22T09:13:00Z,00000200,00000000,0009.99,0007.67,0005.17,0001.07,0001.13,0000.44,0002.15,0002.02,0001.57,19.2,25.4,09.3,06.4,0679.1,31.0
2021-08-22T09:14:00Z,00000200,00000000,0009.25,0007.62,0005.35,0001.21,0000.73,0000.67,0002.04,0001.71,0001.53,19.2,25.4,09.4,06.4,0679.1,31.0
2021-08-22T09:15:00Z,00000200,00000000,0009.38,0007.50,0005.05,0001.43,0000.99,0000.71,0002.03,0002.13,0001.51,19.2,25.4,09.3,06.4,0679.1,31.0
2021-08-22T09:16:00Z,00000200,00000000,0010.03,0007.48,0005.21,0000.91,0000.50,0000.78,0001.76,0001.69,0001.71,19.2,25.4,09.4,06.5,0679.1,31.0
2021-08-22T09:17:00Z,00000200,00000000,0008.89,0007.29,0005.03,0000.68,0000.76,0000.66,0002.25,0002.11,0001.44,19.2,25.4,09.5,06.5,0679.1,31.0
2021-08-22T09:18:00Z,00000200,00000000,0009.05,0007.19,0004.85,0001.02,0000.92,0000.50,0001.78,0001.75,0001.34,19.2,25.4,09.6,06.6,0679.1,31.0
2021-08-22T09:19:00Z,00000200,00000000,0009.01,0007.13,0005.32,0001.53,0000.77,0000.37,0001.96,0001.57,0001.82,19.2,25.4,09.5,06.5,0679.1,31.0
2021-08-22T09:20:00Z,00000200,00000000,0009.53,0007.33,0004.92,0001.27,0000.70,0000.21,0001.91,0001.89,0001.03,19.2,25.4,09.6,06.5,0679.1,31.0
2021-08-22T09:21:00Z,00000200,00000000,0009.00,0007.28,0004.95,0001.42,0000.74,0000.43,0001.91,0002.02,0001.66,19.2,25.4,09.5,06.5,0679.1,31.0
2021-08-22T09:22:00Z,00000200,00000000,0009.54,0007.53,0004.77,0001.27,0000.81,0000.72,0002.02,0001.65,0001.36,19.2,25.4,09.6,06.6,0679.0,31.0
2021-08-22T09:23:00Z,00000200,00000000,0008.69,0007.02,0005.10,0000.80,0000.74,0000.73,0001.62,0001.92,0001.41,19.2,25.4,09.6,06.6,0679.0,31.0
2021-08-22T09:24:00Z,00000200,00000000,0008.65,0006.85,0004.91,0001.40,0000.93,0000.59,0002.16,0001.70,0001.50,19.2,25.4,09.7,06.6,0679.0,31.0
2021-08-22T09:25:00Z,00000200,00000000,0008.36,0006.85,0004.72,0001.71,0000.82,0000.59,0001.69,0001.69,0001.50,19.2,25.4,09.6,06.6,0679.0,31.0
2021-08-22T09:26:00Z,00000200,00000000,0009.42,0006.88,0004.61,0001.00,0001.05,0000.56,0001.73,0001.70,0001.46,19.2,25.4,09.7,06.7,0679.1,31.0
2021-08-22T09:27:00Z,00000200,00000000,0008.49,0007.21,0004.82,0001.30,0000.64,0000.50,0002.32,0001.88,0001.35,19.2,25.4,09.6,06.6,0679.0,31.0
2021-08-22T09:28:00Z,00000200,00000000,0008.48,0007.08,0004.37,0001.78,0000.85,0000.39,0001.42,0001.67,0001.38,19.2,25.4,09.6,06.6,0679.1,31.0
2021-08-22T09:29:00Z,00000200,00000000,0008.47,0007.00,0004.37,0001.30,0000.75,0000.61,0001.97,0001.72,0001.18,19.2,25.4,09.6,06.6,0679.1,31.0
2021-08-22T09:30:00Z,00000200,00000000,0008.66,0007.32,0004.52,0001.40,0000.65,0000.55,0001.98,0001.57,0001.58,19.2,25.4,09.6,06.6,0679.1,31.0
2021-08-22T09:31:00Z,00000200,00000000,0008.53,0006.76,0004.72,0001.30,0000.96,0000.86,0001.66,0001.45,0001.19,19.3,25.4,09.6,06.6,0679.1,31.0
2021-08-22T09:32:00Z,00000200,00000000,0007.91,0006.86,0004.68,0000.86,0001.05,0000.53,0001.95,0002.43,0001.44,19.3,25.4,09.6,06.6,0679.1,31.0
2021-08-22T09:33:00Z,00000200,00000000,0008.67,0006.81,0004.67,0001.34,0000.82,0000.80,0001.78,0001.26,0001.38,19.3,25.4,09.6,06.6,0679.0,31.0
2021-08-22T09:34:00Z,00000200,00000000,0009.08,0007.08,0004.97,0001.75,0000.46,0000.56,0001.96,0001.83,0001.32,19.3,25.4,09.6,06.6,0679.0,31.0
2021-08-22T09:35:00Z,00000200,00000000,0008.59,0007.02,0004.59,0000.81,0000.49,0000.24,0001.81,0001.78,0001.37,19.3,25.4,09.7,06.6,0679.1,31.0
2021-08-22T09:36:00Z,00000200,00000000,0007.97,0007.16,0004.66,0001.29,0001.08,0000.61,0002.04,0001.44,0001.78,19.3,25.4,09.6,06.6,0679.0,31.0
2021-08-22T09:37:00Z,00000200,00000000,0008.58,0006.90,0004.86,0001.00,0000.61,0000.39,0001.52,0002.17,0001.37,19.3,25.4,09.7,06.6,0679.1,31.0
2021-08-22T09:38:00Z,00000200,00000000,0009.43,0007.12,0005.15,0001.45,0000.62,0000.71,0002.10,0001.41,0001.46,19.3,25.4,09.6,06.6,0679.0,31.0
2021-08-22T09:39:00Z,00000200,00000000,0008.96,0007.19,0005.16,0001.04,0000.54,0000.69,0001.72,0002.17,0001.39,19.3,25.4,09.7,06.7,0679.0,31.0
2021-08-22T09:40:00Z,00000200,00000000,0008.41,0007.81,0005.37,0001.79,0001.20,0000.83,0001.99,0001.46,0001.30,19.3,25.4,09.6,06.6,0679.0,31.0
2021-08-22T09:41:00Z,00000200,00000000,0007.99,0007.16,0004.99,0001.03,0000.42,0000.45,0001.78,0001.38,0001.30,19.3,25.4,09.6,06.6,0679.1,31.0
2021-08-22T09:42:00Z,00000200,00000000,0009.05,0007.20,0005.05,0001.07,0000.71,0000.78,0002.08,0002.03,0001.18,19.3,25.5,09.5,06.6,0679.1,31.0
2021-08-22T09:43:00Z,00000200,00000000,0009.57,0007.30,0005.29,0001.02,0000.89,0000.44,0002.01,0001.75,0001.73,19.3,25.5,09.5,06.5,0679.0,31.0
2021-08-22T09:44:00Z,00000200,00000000,0008.22,0007.57,0005.34,0000.99,0000.65,0000.72,0001.66,0001.71,0001.39,19.3,25.5,09.5,06.6,0679.1,31.0
2021-08-22T09:45:00Z,00000200,00000000,0008.95,0006.93,0004.96,0002.23,0000.67,0000.65,0001.98,0002.00,0001.44,19.3,25.5,09.5,06.6,0679.1,31.0
2021-08-22T09:46:00Z,00000200,00000000,0009.02,0007.20,0004.50,0001.00,0000.96,0000.91,0001.87,0001.69,0001.51,19.3,25.5,09.5,06.6,0679.1,31.0
2021-08-22T09:47:00Z,00000200,00000000,0009.06,0007.32,0005.00,0001.29,0000.59,0000.71,0001.68,0001.86,0001.33,19.3,25.5,09.5,06.6,0679.1,31.0
2021-08-22T09:48:00Z,00000200,00000000,0008.35,0007.13,0004.87,0001.01,0000.66,0000.48,0002.29,0001.54,0001.29,19.3,25.5,09.5,06.6,0679.1,31.0
2021-08-22T09:49:00Z,00000200,00000000,0008.83,0007.27,0004.80,0001.21,0000.68,0000.29,0001.83,0002.05,0001.47,19.3,25.5,09.6,06.6,0679.1,31.0
2021-08-22T09:50:00Z,00000200,00000000,0008.79,0007.33,0005.12,0001.41,0001.02,0000.70,0001.63,0001.80,0001.59,19.3,25.5,09.5,06.5,0679.1,31.0
2021-08-22T09:51:00Z,00000200,00000000,0008.84,0006.99,0004.95,0001.30,0001.00,0000.54,0002.20,0001.73,0001.45,19.4,25.5,09.5,06.6,0679.1,31.0
2021-08-22T09:52:00Z,00000200,00000000,0008.68,0007.24,0004.83,0001.44,0000.55,0000.86,0001.89,0001.88,0001.61,19.4,25.5,09.5,06.6,0679.1,31.0
2021-08-22T09:53:00Z,00000200,00000000,0009.18,0007.50,0005.09,0000.92,0000.95,0000.60,0001.35,0001.28,0001.19,19.4,25.5,09.5,06.6,0679.1,31.0
2021-08-22T09:54:00Z,00000200,00000000,0008.19,0007.16,0005.15,0001.37,0000.61,0000.67,0002.70,0002.25,0001.54,19.4,25.5,09.5,06.6,0679.1,31.0
2021-08-22T09:55:00Z,00000200,00000000,0008.98,0007.35,0004.67,0000.81,0000.48,0000.63,0001.63,0001.86,0001.16,19.4,25.5,09.6,06.6,0679.1,31.0
2021-08-22T09:56:00Z,00000200,00000000,0009.62,0007.20,0005.12,0000.42,0000.89,0000.56,0001.89,0001.43,0001.68,19.4,25.5,09.5,06.5,0679.1,31.0
2021-08-22T09:57:00Z,00000200,40000000,,,,,,,0000.60,0000.86,0000.35,19.4,25.5,09.1,06.3,0678.9,31.0
2021-08-22T09:58:00Z,00000200,60000000,,,,,,,0000.21,-000.37,-000.08,19.2,25.6,09.6,06.5,0678.1,31.0
2021-08-22T09:59:00Z,00000200,20000000,,,,,,,-000.36,-000.06,0000.17,19.2,25.7,09.7,06.5,0678.1,31.0
